Location: Newark
(59.8814°N, 10.8258°E)
Time: 13:41:29
(UTC+00:00)

Envisat - Pass Details

Date: 31 January 2020
Orbit: 764 x 766 km, 98.1° (Epoch: 24 February)

Event Time Altitude Azimuth Distance (km) Brightness Sun altitude
Rises 04:05:19 0° 25° (NNE) 3,248 6.7 -25.7°
Reaches altitude 10° 04:09:46 10° 62° (ENE) 2,314 6.4 -25.1°
Maximum altitude 04:11:04 11° 77° (ENE) 2,250 6.4 -25.0°
Drops below altitude 10° 04:12:22 10° 92° (E) 2,310 6.5 -24.8°
Sets 04:16:46 0° 128° (SE) 3,228 6.9 -24.3°
